User: anonymous   Login
Location: Bernadets
(43.3537°N, 0.3167°E)
Time: 13:37:12
(UTC+00:00)
Language:

Orbus 7S? - Orbit

View from above orbital plane
View from above orbital plane
View from above satellite
View from above satellite

Ground track
Ground track

The orbit data is extracted from the following two-line orbital elements,

1 22519U 92086C   22017.17972015 0.00002000  00000-0  23777-3 0    02
2 22519  56.9206  54.9914 3107012 219.8312 140.1688  9.02762966    06
Epoch (UTC): 17 January 2022 04:18:47
Eccentricity: 0.3107012
inclination: 56.9206°
perigee height: 337 km
apogee height: 6392 km
right ascension of ascending node: 54.9914°
argument of perigee: 219.8312°
revolutions per day: 9.02762966
mean anomaly at epoch: 140.1688°
orbit number at epoch: 0

The dashed part of the orbit path shows where the satellite is in the earth's shadow,  

DLR